• In Uzbekistan
  • List of Countries
  • For 7 days
  • Water Temperature
  • Satellite Maps
  • Weather Map
  • Weather Widgets
  • user-avatar
    Login

    Hourly Weather Santiago de Cuba

    Today, 19 February, Monday

    Time Temperature Precipitation Wind Pressure Humidity
    00:00 +22°C° 0 mm 3 mps 761 mmHg 86%
    01:00 +22°C° 0 mm 3 mps 761 mmHg 88%
    02:00 +22°C° 0 mm 3 mps 761 mmHg 89%
    03:00 +22°C° 0 mm 3 mps 761 mmHg 90%
    04:00 +22°C° 0 mm 3 mps 760 mmHg 92%
    05:00 +22°C° 0 mm 3 mps 761 mmHg 91%
    06:00 +22°C° 0 mm 3 mps 761 mmHg 90%
    07:00 +22°C° 0 mm 3 mps 761 mmHg 90%
    08:00 +26°C° 0 mm 3 mps 762 mmHg 79%
    09:00 +28°C° 0 mm 4 mps 762 mmHg 68%
    10:00 +32°C° 0 mm 5 mps 762 mmHg 57%
    11:00 +32°C° 0 mm 5 mps 762 mmHg 54%
    12:00 +33°C° 0 mm 5 mps 761 mmHg 51%
    13:00 +34°C° 0 mm 6 mps 761 mmHg 48%
    14:00 +33°C° 0 mm 6 mps 761 mmHg 47%
    15:00 +33°C° 0 mm 6 mps 761 mmHg 47%
    16:00 +33°C° 0 mm 6 mps 760 mmHg 47%
    17:00 +30°C° 0 mm 5 mps 761 mmHg 53%
    18:00 +29°C° 0 mm 5 mps 761 mmHg 60%
    19:00 +27°C° 0 mm 5 mps 761 mmHg 66%
    20:00 +26°C° 0 mm 4 mps 761 mmHg 71%
    21:00 +25°C° 0 mm 4 mps 762 mmHg 75%
    22:00 +25°C° 0 mm 4 mps 762 mmHg 79%
    23:00 +23°C° 0 mm 4 mps 762 mmHg 81%

    Tomorrow, 20 February, Tuesday

    Time Temperature Precipitation Wind Pressure Humidity
    00:00 +23°C° 0 mm 4 mps 762 mmHg 82%
    01:00 +24°C° 0 mm 3 mps 762 mmHg 84%
    02:00 +24°C° 0 mm 3 mps 761 mmHg 85%
    03:00 +24°C° 0 mm 3 mps 761 mmHg 85%
    04:00 +24°C° 0 mm 3 mps 761 mmHg 86%
    05:00 +23°C° 0 mm 4 mps 761 mmHg 86%
    06:00 +23°C° 0 mm 4 mps 762 mmHg 85%
    07:00 +23°C° 0 mm 4 mps 762 mmHg 85%
    08:00 +26°C° 0 mm 4 mps 762 mmHg 75%
    09:00 +29°C° 0 mm 5 mps 763 mmHg 65%
    10:00 +32°C° 0 mm 6 mps 764 mmHg 54%
    11:00 +33°C° 0 mm 6 mps 763 mmHg 51%
    12:00 +34°C° 0 mm 6 mps 763 mmHg 47%
    13:00 +35°C° 0 mm 7 mps 762 mmHg 43%
    14:00 +35°C° 0 mm 6 mps 762 mmHg 44%
    15:00 +34°C° 0 mm 6 mps 762 mmHg 45%
    16:00 +34°C° 0 mm 6 mps 761 mmHg 46%
    17:00 +32°C° 0 mm 6 mps 762 mmHg 54%
    18:00 +29°C° 0 mm 5 mps 762 mmHg 61%
    19:00 +27°C° 0 mm 5 mps 762 mmHg 68%
    20:00 +27°C° 0 mm 4 mps 763 mmHg 71%
    21:00 +26°C° 0 mm 4 mps 763 mmHg 74%
    22:00 +25°C° 0 mm 4 mps 764 mmHg 77%
    23:00 +25°C° 0 mm 4 mps 763 mmHg 79%

    Day after tomorrow, 21 February, Wednesday

    Time Temperature Precipitation Wind Pressure Humidity
    00:00 +25°C° 0 mm 4 mps 763 mmHg 80%
    01:00 +23°C° 0 mm 4 mps 763 mmHg 81%
    02:00 +23°C° 0 mm 4 mps 763 mmHg 81%
    03:00 +23°C° 0 mm 4 mps 762 mmHg 82%
    04:00 +22°C° 0 mm 4 mps 762 mmHg 83%
    05:00 +23°C° 0 mm 4 mps 762 mmHg 82%
    06:00 +23°C° 0 mm 4 mps 762 mmHg 82%
    07:00 +23°C° 0 mm 4 mps 763 mmHg 81%
    08:00 +26°C° 0 mm 4 mps 763 mmHg 72%
    09:00 +28°C° 0 mm 5 mps 763 mmHg 63%
    10:00 +32°C° 0 mm 6 mps 764 mmHg 53%
    11:00 +32°C° 0 mm 6 mps 763 mmHg 51%
    12:00 +33°C° 0 mm 6 mps 763 mmHg 49%
    13:00 +34°C° 0 mm 6 mps 762 mmHg 47%
    14:00 +34°C° 0.1 mm 6 mps 762 mmHg 49%
    15:00 +33°C° 0.1 mm 6 mps 761 mmHg 51%
    16:00 +33°C° 0.1 mm 6 mps 761 mmHg 52%
    17:00 +30°C° 0.1 mm 5 mps 761 mmHg 59%
    18:00 +28°C° 0.1 mm 5 mps 762 mmHg 66%
    19:00 +27°C° 0.1 mm 4 mps 762 mmHg 73%
    20:00 +26°C° 0 mm 4 mps 762 mmHg 75%
    21:00 +26°C° 0 mm 4 mps 763 mmHg 78%
    22:00 +25°C° 0 mm 4 mps 763 mmHg 80%
    23:00 +25°C° 0 mm 4 mps 763 mmHg 81%

    22 February, Thursday

    Time Temperature Precipitation Wind Pressure Humidity
    00:00 +25°C° 0 mm 4 mps 763 mmHg 82%
    01:00 +25°C° 0 mm 4 mps 762 mmHg 84%
    02:00 +25°C° 0 mm 4 mps 762 mmHg 83%
    03:00 +25°C° 0 mm 4 mps 762 mmHg 83%
    04:00 +25°C° 0 mm 4 mps 762 mmHg 83%
    05:00 +25°C° 0 mm 4 mps 762 mmHg 83%
    06:00 +25°C° 0 mm 4 mps 762 mmHg 83%
    07:00 +25°C° 0 mm 4 mps 763 mmHg 83%
    08:00 +27°C° 0 mm 5 mps 763 mmHg 73%
    09:00 +28°C° 0 mm 5 mps 763 mmHg 64%
    10:00 +30°C° 0 mm 6 mps 764 mmHg 54%
    11:00 +32°C° 0 mm 6 mps 763 mmHg 49%
    12:00 +33°C° 0 mm 6 mps 763 mmHg 44%
    13:00 +34°C° 0 mm 6 mps 762 mmHg 40%
    14:00 +34°C° 0 mm 6 mps 762 mmHg 42%
    15:00 +33°C° 0 mm 6 mps 761 mmHg 45%
    16:00 +33°C° 0 mm 6 mps 761 mmHg 47%
    17:00 +30°C° 0 mm 6 mps 761 mmHg 53%
    18:00 +29°C° 0 mm 5 mps 761 mmHg 60%
    19:00 +27°C° 0 mm 5 mps 762 mmHg 66%
    20:00 +26°C° 0 mm 5 mps 762 mmHg 69%
    21:00 +26°C° 0 mm 4 mps 762 mmHg 72%
    22:00 +25°C° 0 mm 4 mps 763 mmHg 76%
    23:00 +23°C° 0 mm 4 mps 762 mmHg 77%

    23 February, Friday

    Time Temperature Precipitation Wind Pressure Humidity
    00:00 +23°C° 0 mm 4 mps 762 mmHg 79%
    01:00 +23°C° 0 mm 4 mps 762 mmHg 81%
    02:00 +22°C° 0 mm 3 mps 761 mmHg 82%
    03:00 +22°C° 0 mm 3 mps 761 mmHg 83%
    04:00 +22°C° 0 mm 3 mps 761 mmHg 84%
    05:00 +22°C° 0 mm 3 mps 761 mmHg 84%
    06:00 +22°C° 0 mm 3 mps 762 mmHg 83%
    07:00 +22°C° 0 mm 3 mps 762 mmHg 83%
    08:00 +26°C° 0 mm 4 mps 762 mmHg 74%
    09:00 +28°C° 0 mm 5 mps 762 mmHg 65%
    10:00 +30°C° 0 mm 5 mps 763 mmHg 55%
    11:00 +32°C° 0.1 mm 5 mps 762 mmHg 53%
    12:00 +32°C° 0.1 mm 5 mps 762 mmHg 51%
    13:00 +33°C° 0.1 mm 5 mps 761 mmHg 49%
    14:00 +32°C° 0.1 mm 5 mps 760 mmHg 51%
    15:00 +32°C° 0.1 mm 5 mps 760 mmHg 53%
    16:00 +30°C° 0.1 mm 5 mps 760 mmHg 55%
    17:00 +29°C° 0.1 mm 5 mps 760 mmHg 61%
    18:00 +28°C° 0.1 mm 4 mps 760 mmHg 67%
    19:00 +26°C° 0.1 mm 4 mps 760 mmHg 72%
    20:00 +25°C° 0 mm 4 mps 761 mmHg 76%
    21:00 +25°C° 0 mm 4 mps 761 mmHg 79%
    22:00 +24°C° 0 mm 3 mps 761 mmHg 82%
    23:00 +24°C° 0 mm 3 mps 761 mmHg 84%

    24 February, Saturday

    Time Temperature Precipitation Wind Pressure Humidity
    00:00 +22°C° 0 mm 3 mps 760 mmHg 85%
    01:00 +22°C° 0 mm 3 mps 760 mmHg 86%
    02:00 +22°C° 0 mm 3 mps 760 mmHg 87%
    03:00 +22°C° 0 mm 3 mps 760 mmHg 88%
    04:00 +21°C° 0 mm 3 mps 759 mmHg 89%
    05:00 +22°C° 0 mm 3 mps 760 mmHg 88%
    06:00 +22°C° 0 mm 3 mps 760 mmHg 88%
    07:00 +22°C° 0 mm 3 mps 760 mmHg 87%
    08:00 +25°C° 0 mm 4 mps 761 mmHg 76%
    09:00 +28°C° 0 mm 4 mps 761 mmHg 65%
    10:00 +30°C° 0 mm 5 mps 761 mmHg 54%
    11:00 +32°C° 0.2 mm 5 mps 761 mmHg 53%
    12:00 +32°C° 0.2 mm 5 mps 760 mmHg 53%
    13:00 +32°C° 0.2 mm 5 mps 759 mmHg 52%
    14:00 +32°C° 0.4 mm 5 mps 759 mmHg 53%
    15:00 +32°C° 0.4 mm 5 mps 758 mmHg 53%
    16:00 +32°C° 0.4 mm 5 mps 758 mmHg 54%
    17:00 +29°C° 0.2 mm 4 mps 758 mmHg 60%
    18:00 +28°C° 0.2 mm 4 mps 759 mmHg 65%
    19:00 +26°C° 0.2 mm 4 mps 759 mmHg 70%
    20:00 +26°C° 0.1 mm 3 mps 759 mmHg 74%
    21:00 +25°C° 0.1 mm 3 mps 760 mmHg 78%
    22:00 +24°C° 0.1 mm 3 mps 760 mmHg 81%
    23:00 +24°C° 0 mm 3 mps 760 mmHg 83%
    Show more